Flag for Canada Weather past 2 weeks in Laval, Quebec, Canada

Now
75 °F

Partly sunny.


Feels Like: 77 °F
Forecast: 60 / 72 °F
Wind: 13 mph from Southwest

Location: Montreal / Mirabel

Current Time: May 27, 2015 at 8:19:35 PM

Latest Report: May 27, 2015 at 8:00 PM


Visibility: 45 mi

Pressure: 29.90 "Hg

Humidity: 61%

Dew point: 61 °F

Location of LavalLocation

Historic Weather in Laval — Graph

°F

Laval temperature yesterday

Maximum temperature yesterday: 82 °F (at 4:00 PM)
Minimum temperature yesterday: 57 °F (at 2:47 AM)
Average temperature yesterday: 69 °F

Past Weeks' High & Low Weather Summary

 TemperatureHumidityPressure
High82 °F (May 26, 4:00 PM)100% (May 18, 11:00 PM)30.42 "Hg (May 18, 11:00 PM)
Low32 °F (May 23, 1:00 AM)21% (May 20, 6:00 PM)29.61 "Hg (May 19, 5:00 PM)
Average59 °F61%30.03 "Hg
* Reported May 12 7:00 PM — May 27 7:00 PM, Laval, Weather by CustomWeather, © 2015

Note: Actual official high and low records may vary slightly from our data, if they occured in-between our weather recording intervals... More about our weather records

Advertising

Laval weather history for previous 24 hours

 ConditionsComfort  
Time TempWeatherWind HumidityBarometerVisibility
7:00 PM
Wed, May 27
79 °FPartly sunny.13 mph58%29.89 "Hg40 mi
6:00 PM79 °FBroken clouds.13 mph61%29.88 "Hg35 mi
5:00 PM79 °FBroken clouds.13 mph65%29.89 "Hg25 mi
4:00 PM79 °FBroken clouds.16 mph65%29.89 "Hg25 mi
3:00 PM77 °FBroken clouds.10 mph74%29.90 "Hg25 mi
2:00 PM77 °FBroken clouds.6 mph74%29.93 "Hg25 mi
1:00 PM75 °FBroken clouds.9 mph78%29.94 "Hg25 mi
12:00 PM75 °FSprinkles. Mostly cloudy.10 mph83%29.95 "Hg15 mi
11:00 AM75 °FMostly cloudy.8 mph83%29.96 "Hg15 mi
10:00 AM75 °FPartly sunny.8 mph78%29.96 "Hg25 mi
9:00 AM73 °FBroken clouds.3 mph83%29.97 "Hg25 mi
8:00 AM72 °FBroken clouds.6 mph83%29.96 "Hg25 mi
7:00 AM68 °FBroken clouds.No wind94%29.98 "Hg25 mi
6:00 AM64 °FPassing clouds.No wind100%29.98 "Hg25 mi
5:00 AM64 °FSprinkles. Passing clouds.2 mph100%29.97 "Hg15 mi
4:00 AM66 °FSprinkles. Mostly cloudy.No wind94%29.96 "Hg15 mi
3:00 AM66 °FSprinkles. Mostly cloudy.2 mph94%29.97 "Hg15 mi
2:48 AM64 °FSprinkles. Mostly cloudy.2 mph94%29.98 "Hg20 mi
2:00 AM68 °FPassing clouds.2 mph83%29.98 "Hg25 mi
1:00 AM68 °FClear.2 mph83%30.00 "Hg25 mi
12:00 AM72 °FClear.5 mph73%30.01 "Hg25 mi
11:00 PM
Tue, May 26
72 °FClear.3 mph73%30.00 "Hg25 mi
10:00 PM73 °FPassing clouds.5 mph69%30.00 "Hg25 mi
9:00 PM75 °FPartly sunny.8 mph61%29.98 "Hg25 mi
8:00 PM77 °FPartly sunny.7 mph61%29.98 "Hg35 mi
Weather by CustomWeather, © 2015

See weather overviewHow to use our weather pages